,,,PA_Meas_PMT16A,,PR_Meas_QMR101_102,,RH_Meas_QMH101,,SR_Meas_QMS101,,TA_Meas_QMH101,,GenWind,,GenWind,
date,time,status,PA,status,PR,status,RH,status,SR,status,TA,status,DirAvg,status,SpdAvg,
2010-03-29, 00:00:04,VALID,1004.3,VALID,0,VALID,91.4321,VALID,0,VALID,24.4998,VALID,316,VALID,0.713672,
2010-03-29, 00:01:04,VALID,1004.26,VALID,0,VALID,91.7144,VALID,0,VALID,24.4998,VALID,276,VALID,1.14727,
2010-03-29, 00:02:04,VALID,1004.25,VALID,0,VALID,91.867,VALID,0,VALID,24.4804,VALID,309,VALID,1.14844,
2010-03-29, 00:03:04,VALID,1004.25,VALID,0,VALID,91.9051,VALID,0,VALID,24.4804,VALID,335,VALID,1.12148,
2010-03-29, 00:04:04,VALID,1004.23,VALID,0,VALID,91.3177,VALID,0,VALID,24.4609,VALID,312,VALID,1.8582,
2010-03-29, 00:05:04,VALID,1004.25,VALID,0,VALID,91.1193,VALID,0.100563,VALID,24.4804,VALID,313,VALID,1.34531,
2010-03-29, 00:06:04,VALID,1004.29,VALID,0,VALID,91.1956,VALID,0,VALID,24.4998,VALID,270,VALID,1.02109,
2010-03-29, 00:07:04,VALID,1004.25,VALID,0,VALID,91.0583,VALID,0,VALID,24.5017,VALID,328,VALID,1.16523,
2010-03-29, 00:08:04,VALID,1004.25,VALID,0,VALID,91.5771,VALID,0,VALID,24.4998,VALID,339,VALID,0.944141,
2010-03-29, 00:09:04,VALID,1004.32,VALID,0,VALID,91.3024,VALID,0,VALID,24.4998,VALID,320,VALID,0.605469,
2010-03-29, 00:10:04,VALID,1004.36,VALID,0,VALID,91.2719,VALID,0,VALID,24.4998,VALID,246,VALID,0.419531,
2010-03-29, 00:11:04,VALID,1004.36,VALID,0,VALID,91.5389,VALID,0,VALID,24.4998,VALID,317,VALID,1.01133,
2010-03-29, 00:12:04,VALID,1004.36,VALID,0,VALID,91.6152,VALID,0,VALID,24.459,VALID,351,VALID,1.1332,
2010-03-29, 00:13:04,VALID,1004.34,VALID,0,VALID,91.7449,VALID,0,VALID,24.4785,VALID,345,VALID,0.934375,
2010-03-29, 00:14:04,VALID,1004.32,VALID,0,VALID,91.8822,VALID,0,VALID,24.4785,VALID,321,VALID,1.01406,
2010-03-29, 00:15:04,VALID,1004.25,VALID,0,VALID,91.8517,VALID,0,VALID,24.4804,VALID,329,VALID,1.31367,
2010-03-29, 00:16:04,VALID,1004.26,VALID,0,VALID,91.722,VALID,0,VALID,24.5017,VALID,351,VALID,0.914453,
2010-03-29, 00:17:04,VALID,1004.25,VALID,0,VALID,91.7983,VALID,0,VALID,24.4804,VALID,315,VALID,0.545703,
2010-03-29, 00:18:04,VALID,1004.19,VALID,0,VALID,92.1798,VALID,0,VALID,24.4804,VALID,324,VALID,0.719531,
2010-03-29, 00:19:04,VALID,1004.15,VALID,0,VALID,92.2637,VALID,0,VALID,24.4396,VALID,318,VALID,0.780078,
2010-03-29, 00:20:04,VALID,1004.11,VALID,0,VALID,92.2942,VALID,0,VALID,24.4414,VALID,2,VALID,0.414844,
2010-03-29, 00:21:04,VALID,1004.1,VALID,0,VALID,92.2484,VALID,0,VALID,24.4414,VALID,340,VALID,1.16445,
2010-03-29, 00:22:04,VALID,1004.12,VALID,0,VALID,92.4163,VALID,0,VALID,24.4414,VALID,303,VALID,0.816406,
2010-03-29, 00:23:04,VALID,1004.05,VALID,0,VALID,92.5002,VALID,0,VALID,24.4414,VALID,273,VALID,0.883984,
2010-03-29, 00:24:04,VALID,1004.06,VALID,0,VALID,92.5612,VALID,0,VALID,24.422,VALID,344,VALID,0.310937,
2010-03-29, 00:25:04,VALID,1004.03,VALID,0,VALID,92.5917,VALID,0,VALID,24.422,VALID,281,VALID,0.737891,
2010-03-29, 00:26:04,VALID,1003.93,VALID,0,VALID,92.5841,VALID,0,VALID,24.422,VALID,323,VALID,1.20586,
2010-03-29, 00:27:04,VALID,1003.92,VALID,0,VALID,92.5078,VALID,0.100563,VALID,24.4414,VALID,328,VALID,0.686719,
2010-03-29, 00:28:04,VALID,1003.86,VALID,0,VALID,92.5154,VALID,0,VALID,24.422,VALID,285,VALID,1.8625,
2010-03-29, 00:29:04,VALID,1003.82,VALID,0,VALID,92.5688,VALID,0,VALID,24.4414,VALID,358,VALID,0.416016,
2010-03-29, 00:30:04,VALID,1003.77,VALID,0,VALID,92.5383,VALID,0,VALID,24.422,VALID,300,VALID,0.975781,
2010-03-29, 00:31:04,VALID,1003.7,VALID,0,VALID,92.5078,VALID,0,VALID,24.422,VALID,290,VALID,0.867578,
2010-03-29, 00:32:04,VALID,1003.65,VALID,0,VALID,92.4315,VALID,0,VALID,24.4025,VALID,296,VALID,1.82813,
2010-03-29, 00:33:04,VALID,1003.63,VALID,0,VALID,92.401,VALID,0,VALID,24.4238,VALID,354,VALID,1.32266,
2010-03-29, 00:34:04,VALID,1003.57,VALID,0,VALID,92.4315,VALID,0,VALID,24.4006,VALID,16,VALID,0.504687,
2010-03-29, 00:35:04,VALID,1003.54,VALID,0,VALID,92.0348,VALID,0,VALID,24.4025,VALID,302,VALID,1.09805,
2010-03-29, 00:36:04,VALID,1003.52,VALID,0,VALID,92.2332,VALID,0,VALID,24.422,VALID,346,VALID,1.17773,
2010-03-29, 00:37:04,VALID,1003.49,VALID,0,VALID,92.4239,VALID,0,VALID,24.4201,VALID,339,VALID,0.322656,
2010-03-29, 00:38:04,VALID,1003.46,VALID,0,VALID,92.5841,VALID,0,VALID,24.422,VALID,347,VALID,0.467578,
2010-03-29, 00:39:04,VALID,1003.46,VALID,0,VALID,92.6146,VALID,0,VALID,24.4025,VALID,241,VALID,0.639453,
2010-03-29, 00:40:04,VALID,1003.47,VALID,0,VALID,92.5002,VALID,0,VALID,24.4025,VALID,305,VALID,1.20703,
2010-03-29, 00:41:04,VALID,1003.49,VALID,0,VALID,92.4391,VALID,0,VALID,24.383,VALID,281,VALID,0.695703,
2010-03-29, 00:42:04,VALID,1003.45,VALID,0,VALID,92.4849,VALID,0,VALID,24.4238,VALID,289,VALID,0.600391,
2010-03-29, 00:43:04,VALID,1003.46,VALID,0,VALID,92.4773,VALID,0,VALID,24.383,VALID,338,VALID,0.428906,
2010-03-29, 00:44:04,VALID,1003.42,VALID,0,VALID,92.5307,VALID,0,VALID,24.383,VALID,296,VALID,0.561719,
2010-03-29, 00:45:04,VALID,1003.45,VALID,0,VALID,92.6375,VALID,0,VALID,24.383,VALID,294,VALID,0.463672,
2010-03-29, 00:46:04,VALID,1003.42,VALID,0,VALID,92.6985,VALID,0,VALID,24.3636,VALID,275,VALID,0.578125,
2010-03-29, 00:47:04,VALID,1003.4,VALID,0,VALID,92.6146,VALID,0,VALID,24.3441,VALID,352,VALID,0.868359,
2010-03-29, 00:48:04,VALID,1003.33,VALID,0,VALID,92.4849,VALID,0,VALID,24.3246,VALID,313,VALID,0.510938,
2010-03-29, 00:49:04,VALID,1003.36,VALID,0,VALID,92.4239,VALID,0,VALID,24.3246,VALID,354,VALID,0.278906,
2010-03-29, 00:50:04,VALID,1003.36,VALID,0,VALID,92.4163,VALID,0,VALID,24.3246,VALID,352,VALID,0.987891,
2010-03-29, 00:51:04,VALID,1003.36,VALID,0,VALID,92.4773,VALID,0,VALID,24.3246,VALID,336,VALID,0.685156,
2010-03-29, 00:52:04,VALID,1003.37,VALID,0,VALID,92.5231,VALID,0,VALID,24.3052,VALID,347,VALID,0.453906,
2010-03-29, 00:53:04,VALID,1003.4,VALID,0,VALID,92.2866,VALID,0,VALID,24.2857,VALID,354,VALID,2.3125,
2010-03-29, 00:54:04,VALID,1003.43,VALID,0,VALID,91.9204,VALID,0,VALID,24.2662,VALID,13,VALID,1.22344,
2010-03-29, 00:55:04,VALID,1003.45,VALID,0,VALID,92.0119,VALID,0,VALID,24.3052,VALID,324,VALID,0.623828,
2010-03-29, 00:56:04,VALID,1003.45,VALID,0,VALID,92.1569,VALID,0,VALID,24.2857,VALID,319,VALID,0.209375,
2010-03-29, 00:57:04,VALID,1003.49,VALID,0,VALID,92.2866,VALID,0,VALID,24.2857,VALID,42,VALID,0.737109,
2010-03-29, 00:58:04,VALID,1003.49,VALID,0,VALID,92.1798,VALID,0,VALID,24.2662,VALID,15,VALID,1.2582,
2010-03-29, 00:59:04,VALID,1003.47,VALID,0,VALID,92.1111,VALID,0,VALID,24.2449,VALID,259,VALID,0.327344,
2010-03-29, 01:00:04,VALID,1003.48,VALID,0,VALID,92.1798,VALID,0,VALID,24.2875,VALID,346,VALID,0.453906,
2010-03-29, 01:01:04,VALID,1003.52,VALID,0,VALID,92.2332,VALID,0.100563,VALID,24.2662,VALID,288,VALID,0.619531,
2010-03-29, 01:02:04,VALID,1003.52,VALID,0,VALID,92.1569,VALID,0,VALID,24.2468,VALID,301,VALID,0.767969,
2010-03-29, 01:03:04,VALID,1003.55,VALID,0,VALID,91.8746,VALID,0.100563,VALID,24.2273,VALID,290,VALID,1.43906,
2010-03-29, 01:04:04,VALID,1003.58,VALID,0,VALID,92.0577,VALID,0,VALID,24.2273,VALID,299,VALID,1.02969,
2010-03-29, 01:05:04,VALID,1003.56,VALID,0,VALID,92.3552,VALID,0,VALID,24.2468,VALID,305,VALID,0.368359,
2010-03-29, 01:06:04,VALID,1003.53,VALID,0,VALID,92.4468,VALID,0,VALID,24.2468,VALID,332,VALID,0.694922,
2010-03-29, 01:07:04,VALID,1003.5,VALID,0,VALID,92.2103,VALID,0,VALID,24.2486,VALID,304,VALID,0.489062,
2010-03-29, 01:08:04,VALID,1003.48,VALID,0,VALID,92.1798,VALID,0,VALID,24.2078,VALID,358,VALID,0.579297,
2010-03-29, 01:09:04,VALID,1003.49,VALID,0,VALID,92.3171,VALID,0,VALID,24.2078,VALID,292,VALID,0.463672,
2010-03-29, 01:10:04,VALID,1003.45,VALID,0,VALID,92.4163,VALID,0,VALID,24.2273,VALID,294,VALID,0.1875,
2010-03-29, 01:11:04,VALID,1003.42,VALID,0,VALID,92.4773,VALID,0,VALID,24.1884,VALID,341,VALID,0.714844,
2010-03-29, 01:12:04,VALID,1003.4,VALID,0,VALID,92.34,VALID,0,VALID,24.1689,VALID,3,VALID,1.13516,
2010-03-29, 01:13:04,VALID,1003.37,VALID,0,VALID,92.3018,VALID,0,VALID,24.1884,VALID,318,VALID,0.8875,
2010-03-29, 01:14:04,VALID,1003.37,VALID,0,VALID,92.4163,VALID,0,VALID,24.1902,VALID,309,VALID,0.458594,
2010-03-29, 01:15:04,VALID,1003.36,VALID,0,VALID,92.2866,VALID,0,VALID,24.192,VALID,274,VALID,1.05039,
2010-03-29, 01:16:04,VALID,1003.37,VALID,0,VALID,91.1193,VALID,0,VALID,24.1318,VALID,302,VALID,0.996875,
2010-03-29, 01:17:04,VALID,1003.36,VALID,0,VALID,90.7379,VALID,0,VALID,24.1707,VALID,360,VALID,0.947266,
2010-03-29, 01:18:04,VALID,1003.36,VALID,0,VALID,90.5548,VALID,0,VALID,24.1902,VALID,229,VALID,0.372656,
2010-03-29, 01:19:04,VALID,1003.34,VALID,0,VALID,90.1963,VALID,0,VALID,24.2097,VALID,328,VALID,0.566016,
2010-03-29, 01:20:04,VALID,1003.35,VALID,0,VALID,89.5631,VALID,0,VALID,24.2097,VALID,351,VALID,1.39688,
2010-03-29, 01:21:04,VALID,1003.35,VALID,0,VALID,89.3418,VALID,0,VALID,24.231,VALID,8,VALID,0.565234,
2010-03-29, 01:22:04,VALID,1003.34,VALID,0,VALID,89.0595,VALID,0,VALID,24.2291,VALID,348,VALID,0.885938,
2010-03-29, 01:23:04,VALID,1003.31,VALID,0,VALID,89.0595,VALID,0,VALID,24.2291,VALID,15,VALID,0.841016,
2010-03-29, 01:24:04,VALID,1003.3,VALID,0,VALID,88.5103,VALID,0,VALID,24.2291,VALID,348,VALID,1.02695,
2010-03-29, 01:25:04,VALID,1003.27,VALID,0,VALID,87.8923,VALID,0,VALID,24.2486,VALID,341,VALID,1.31875,
2010-03-29, 01:26:04,VALID,1003.26,VALID,0,VALID,87.7245,VALID,0,VALID,24.2699,VALID,357,VALID,1.16289,
2010-03-29, 01:27:04,VALID,1003.29,VALID,0,VALID,87.8618,VALID,0,VALID,24.2875,VALID,330,VALID,0.821484,
2010-03-29, 01:28:04,VALID,1003.25,VALID,0,VALID,87.5185,VALID,0,VALID,24.2894,VALID,275,VALID,0.579297,
2010-03-29, 01:29:04,VALID,1003.27,VALID,0,VALID,87.549,VALID,0,VALID,24.2875,VALID,351,VALID,1.1375,
2010-03-29, 01:30:04,VALID,1003.25,VALID,0,VALID,87.8237,VALID,0,VALID,24.2857,VALID,331,VALID,0.307422,
2010-03-29, 01:31:04,VALID,1003.21,VALID,0,VALID,88.0678,VALID,0,VALID,24.307,VALID,348,VALID,0.363281,
2010-03-29, 01:32:04,VALID,1003.19,VALID,0,VALID,88.0754,VALID,0,VALID,24.3052,VALID,331,VALID,0.767187,
2010-03-29, 01:33:04,VALID,1003.18,VALID,0,VALID,87.9305,VALID,0,VALID,24.2857,VALID,303,VALID,0.739453,
2010-03-29, 01:34:04,VALID,1003.16,VALID,0,VALID,87.5109,VALID,0,VALID,24.307,VALID,341,VALID,0.441016,
2010-03-29, 01:35:04,VALID,1003.15,VALID,0,VALID,87.7474,VALID,0,VALID,24.3265,VALID,343,VALID,0.490234,
2010-03-29, 01:36:04,VALID,1003.13,VALID,0,VALID,87.3507,VALID,0,VALID,24.2857,VALID,287,VALID,1.23984,
2010-03-29, 01:37:04,VALID,1003.17,VALID,0,VALID,87.5261,VALID,0,VALID,24.2857,VALID,284,VALID,0.527344,
2010-03-29, 01:38:05,VALID,1003.11,VALID,0,VALID,87.2668,VALID,0,VALID,24.307,VALID,345,VALID,0.848828,
2010-03-29, 01:39:05,VALID,1003.17,VALID,0,VALID,87.3736,VALID,0,VALID,24.2857,VALID,342,VALID,0.666016,
2010-03-29, 01:40:05,VALID,1003.19,VALID,0,VALID,87.3354,VALID,0,VALID,24.2857,VALID,294,VALID,0.855469,
2010-03-29, 01:41:05,VALID,1003.21,VALID,0,VALID,87.0837,VALID,0,VALID,24.2857,VALID,355,VALID,0.831641,
2010-03-29, 01:42:05,VALID,1003.19,VALID,0,VALID,86.5115,VALID,0,VALID,24.2857,VALID,306,VALID,0.885938,
2010-03-29, 01:43:05,VALID,1003.22,VALID,0,VALID,86.6107,VALID,0,VALID,24.3052,VALID,1,VALID,0.875781,
2010-03-29, 01:44:05,VALID,1003.24,VALID,0,VALID,86.481,VALID,0,VALID,24.3052,VALID,344,VALID,1.02539,
2010-03-29, 01:45:05,VALID,1003.27,VALID,0,VALID,86.809,VALID,0,VALID,24.3246,VALID,16,VALID,0.819531,
2010-03-29, 01:46:05,VALID,1003.23,VALID,0,VALID,87.2744,VALID,0,VALID,24.3246,VALID,246,VALID,0.319531,
2010-03-29, 01:47:05,VALID,1003.26,VALID,0,VALID,86.5191,VALID,0,VALID,24.3052,VALID,357,VALID,1.17852,
2010-03-29, 01:48:05,VALID,1003.28,VALID,0,VALID,85.7944,VALID,0,VALID,24.3459,VALID,265,VALID,1.31953,
2010-03-29, 01:49:05,VALID,1003.29,VALID,0,VALID,85.2222,VALID,0,VALID,24.3636,VALID,340,VALID,0.538281,
2010-03-29, 01:50:05,VALID,1003.3,VALID,0,VALID,85.0391,VALID,0,VALID,24.3849,VALID,306,VALID,0.982813,
2010-03-29, 01:51:05,VALID,1003.33,VALID,0,VALID,84.8408,VALID,0,VALID,24.383,VALID,304,VALID,1.03398,
2010-03-29, 01:52:05,VALID,1003.31,VALID,0,VALID,85.0468,VALID,0,VALID,24.4238,VALID,310,VALID,0.298438,
2010-03-29, 01:53:05,VALID,1003.28,VALID,0,VALID,85.0849,VALID,0,VALID,24.4433,VALID,295,VALID,0.898828,
2010-03-29, 01:54:05,VALID,1003.26,VALID,0,VALID,84.7721,VALID,0,VALID,24.4628,VALID,260,VALID,0.868359,
2010-03-29, 01:55:05,VALID,1003.24,VALID,0,VALID,84.5204,VALID,0,VALID,24.4396,VALID,344,VALID,0.845703,
2010-03-29, 01:56:05,VALID,1003.24,VALID,0,VALID,84.7416,VALID,0.100563,VALID,24.4609,VALID,321,VALID,0.936719,
2010-03-29, 01:57:05,VALID,1003.26,VALID,0,VALID,84.6806,VALID,0,VALID,24.4822,VALID,310,VALID,0.395703,
2010-03-29, 01:58:05,VALID,1003.25,VALID,0,VALID,84.3678,VALID,0,VALID,24.4804,VALID,335,VALID,1.18203,
2010-03-29, 01:59:05,VALID,1003.23,VALID,0,VALID,83.4676,VALID,0,VALID,24.4998,VALID,359,VALID,1.68359,
2010-03-29, 02:00:05,VALID,1003.22,VALID,0,VALID,82.5216,VALID,0,VALID,24.5193,VALID,349,VALID,1.81289,
2010-03-29, 02:01:05,VALID,1003.21,VALID,0,VALID,82.903,VALID,0,VALID,24.5582,VALID,358,VALID,0.917188,
2010-03-29, 02:02:05,VALID,1003.23,VALID,0,VALID,82.9946,VALID,0,VALID,24.5777,VALID,339,VALID,0.606641,
2010-03-29, 02:03:05,VALID,1003.19,VALID,0,VALID,82.636,VALID,0,VALID,24.5582,VALID,342,VALID,0.952344,
2010-03-29, 02:04:05,VALID,1003.18,VALID,0,VALID,82.5903,VALID,0,VALID,24.5777,VALID,344,VALID,1.35547,
2010-03-29, 02:05:05,VALID,1003.19,VALID,0,VALID,82.5903,VALID,0,VALID,24.6185,VALID,340,VALID,0.666406,
2010-03-29, 02:06:05,VALID,1003.17,VALID,0,VALID,82.3309,VALID,0,VALID,24.5972,VALID,7,VALID,0.475781,
2010-03-29, 02:07:05,VALID,1003.2,VALID,0,VALID,82.7276,VALID,0,VALID,24.5972,VALID,308,VALID,0.387109,
2010-03-29, 02:08:05,VALID,1003.19,VALID,0,VALID,81.9189,VALID,0,VALID,24.6185,VALID,294,VALID,1.11836,
2010-03-29, 02:09:05,VALID,1003.22,VALID,0,VALID,82.4148,VALID,0,VALID,24.638,VALID,287,VALID,0.509375,
2010-03-29, 02:10:05,VALID,1003.14,VALID,0,VALID,81.7282,VALID,0,VALID,24.638,VALID,283,VALID,1.24844,
2010-03-29, 02:11:05,VALID,1003.15,VALID,0,VALID,82.0868,VALID,0,VALID,24.6361,VALID,310,VALID,0.620313,
2010-03-29, 02:12:05,VALID,1003.18,VALID,0,VALID,82.2775,VALID,0,VALID,24.6361,VALID,324,VALID,0.841406,
2010-03-29, 02:13:05,VALID,1003.11,VALID,0,VALID,81.774,VALID,0,VALID,24.6166,VALID,352,VALID,1.31523,
2010-03-29, 02:14:05,VALID,1003.14,VALID,0,VALID,82.1096,VALID,0,VALID,24.6574,VALID,358,VALID,0.405469,
2010-03-29, 02:15:05,VALID,1003.13,VALID,0,VALID,82.2164,VALID,0,VALID,24.5972,VALID,356,VALID,0.186328,
2010-03-29, 02:16:05,VALID,1003.13,VALID,0,VALID,81.4383,VALID,0,VALID,24.5972,VALID,290,VALID,1.14219,
2010-03-29, 02:17:05,VALID,1003.14,VALID,0,VALID,82.1936,VALID,0,VALID,24.6166,VALID,217,VALID,0.457031,
2010-03-29, 02:18:05,VALID,1003.09,VALID,0,VALID,81.4764,VALID,0,VALID,24.6166,VALID,322,VALID,0.69375,
2010-03-29, 02:19:05,VALID,1003.07,VALID,0,VALID,80.7975,VALID,0,VALID,24.638,VALID,316,VALID,1.03555,
2010-03-29, 02:20:05,VALID,1003.04,VALID,0,VALID,81.1942,VALID,0,VALID,24.6769,VALID,265,VALID,0.530469,
2010-03-29, 02:21:05,VALID,1003.04,VALID,0,VALID,81.9952,VALID,0,VALID,24.6945,VALID,287,VALID,0.584375,
2010-03-29, 02:22:05,VALID,1003.03,VALID,0,VALID,81.9876,VALID,0,VALID,24.6945,VALID,280,VALID,0.367188,
2010-03-29, 02:23:05,VALID,1002.99,VALID,0,VALID,82.5063,VALID,0,VALID,24.675,VALID,258,VALID,0.487109,
2010-03-29, 02:24:05,VALID,1002.97,VALID,0,VALID,82.4758,VALID,0,VALID,24.6361,VALID,271,VALID,0.169141,
2010-03-29, 02:25:05,VALID,1003,VALID,0,VALID,82.369,VALID,0,VALID,24.6166,VALID,271,VALID,0.423438,
2010-03-29, 02:26:05,VALID,1002.96,VALID,0,VALID,82.0639,VALID,0,VALID,24.6185,VALID,269,VALID,0.419141,
2010-03-29, 02:27:05,VALID,1002.95,VALID,0,VALID,82.4377,VALID,0,VALID,24.5953,VALID,270,VALID,0.415625,
2010-03-29, 02:28:05,VALID,1002.95,VALID,0,VALID,83.2921,VALID,0,VALID,24.5972,VALID,270,VALID,0.0777344,
2010-03-29, 02:29:05,VALID,1002.92,VALID,0,VALID,82.0791,VALID,0,VALID,24.5972,VALID,318,VALID,0.882031,
2010-03-29, 02:30:05,VALID,1002.93,VALID,0,VALID,82.4377,VALID,0,VALID,24.5972,VALID,223,VALID,0.475781,
2010-03-29, 02:31:05,VALID,1002.91,VALID,0,VALID,82.1173,VALID,0,VALID,24.5777,VALID,224,VALID,0.5,
2010-03-29, 02:32:05,VALID,1002.92,VALID,0,VALID,82.308,VALID,0,VALID,24.5582,VALID,241,VALID,0.0925781,
2010-03-29, 02:33:05,VALID,1002.88,VALID,0,VALID,82.6894,VALID,0.100563,VALID,24.5582,VALID,210,VALID,0.579687,
2010-03-29, 02:34:05,VALID,1002.85,VALID,0,VALID,82.8115,VALID,0,VALID,24.5777,VALID,180,VALID,0.444922,
2010-03-29, 02:35:05,VALID,1002.84,VALID,0,VALID,82.5063,VALID,0,VALID,24.5582,VALID,180,VALID,0.567578,
2010-03-29, 02:36:05,VALID,1002.82,VALID,0,VALID,82.6131,VALID,0,VALID,24.5388,VALID,180,VALID,0.534766,
2010-03-29, 02:37:05,VALID,1002.8,VALID,0,VALID,83.5515,VALID,0,VALID,24.5193,VALID,180,VALID,0.694531,
2010-03-29, 02:38:05,VALID,1002.81,VALID,0,VALID,83.2235,VALID,0,VALID,24.4804,VALID,182,VALID,0.653125,
2010-03-29, 02:39:05,VALID,1002.83,VALID,0,VALID,83.2616,VALID,0,VALID,24.4414,VALID,182,VALID,0.419531,
2010-03-29, 02:40:05,VALID,1002.82,VALID,0,VALID,83.2845,VALID,0,VALID,24.422,VALID,182,VALID,0.710547,
2010-03-29, 02:41:05,VALID,1002.88,VALID,0,VALID,83.7193,VALID,0,VALID,24.4433,VALID,183,VALID,0.283984,
2010-03-29, 02:42:05,VALID,1002.88,VALID,0,VALID,82.5903,VALID,0,VALID,24.4025,VALID,332,VALID,1.13984,
2010-03-29, 02:43:05,VALID,1002.91,VALID,0,VALID,81.8655,VALID,0,VALID,24.4628,VALID,340,VALID,0.998438,
2010-03-29, 02:44:05,VALID,1002.87,VALID,0,VALID,82.3385,VALID,0,VALID,24.5193,VALID,288,VALID,0.501953,
2010-03-29, 02:45:05,VALID,1002.87,VALID,0,VALID,82.514,VALID,0,VALID,24.5388,VALID,288,VALID,0.146875,
2010-03-29, 02:46:05,VALID,1002.87,VALID,0,VALID,82.1936,VALID,0,VALID,24.5388,VALID,308,VALID,0.529688,
2010-03-29, 02:47:05,VALID,1002.82,VALID,0,VALID,81.5909,VALID,0,VALID,24.5777,VALID,347,VALID,1.15781,
2010-03-29, 02:48:05,VALID,1002.82,VALID,0,VALID,81.9418,VALID,0,VALID,24.5953,VALID,280,VALID,1.025,
2010-03-29, 02:49:05,VALID,1002.78,VALID,0,VALID,81.5756,VALID,0,VALID,24.6166,VALID,282,VALID,0.370313,
2010-03-29, 02:50:05,VALID,1002.77,VALID,0,VALID,81.9647,VALID,0.100563,VALID,24.6574,VALID,354,VALID,0.555078,
2010-03-29, 02:51:05,VALID,1002.72,VALID,0,VALID,81.6519,VALID,0,VALID,24.6166,VALID,357,VALID,1.46484,
2010-03-29, 02:52:05,VALID,1002.72,VALID,0,VALID,81.774,VALID,0,VALID,24.6166,VALID,349,VALID,0.689453,
2010-03-29, 02:53:05,VALID,1002.73,VALID,0,VALID,81.6672,VALID,0,VALID,24.6166,VALID,356,VALID,1.04531,
2010-03-29, 02:54:05,VALID,1002.69,VALID,0,VALID,81.6367,VALID,0,VALID,24.5972,VALID,355,VALID,0.669141,
2010-03-29, 02:55:05,VALID,1002.69,VALID,0,VALID,82.3309,VALID,0,VALID,24.5777,VALID,11,VALID,0.649219,
2010-03-29, 02:56:05,VALID,1002.69,VALID,0,VALID,81.7663,VALID,0,VALID,24.5582,VALID,355,VALID,1.25078,
2010-03-29, 02:57:05,VALID,1002.72,VALID,0,VALID,82.7047,VALID,0.100563,VALID,24.5582,VALID,359,VALID,0.341016,
2010-03-29, 02:58:05,VALID,1002.73,VALID,0,VALID,82.2546,VALID,0,VALID,24.5174,VALID,351,VALID,1.20156,
2010-03-29, 02:59:05,VALID,1002.74,VALID,0,VALID,82.1325,VALID,0,VALID,24.4998,VALID,4,VALID,1.34922,
2010-03-29, 03:00:05,VALID,1002.69,VALID,0,VALID,83.0861,VALID,0,VALID,24.4998,VALID,2,VALID,0.399219,
2010-03-29, 03:01:05,VALID,1002.7,VALID,0,VALID,82.8573,VALID,0,VALID,24.4609,VALID,353,VALID,0.158984,
2010-03-29, 03:02:05,VALID,1002.72,VALID,0,VALID,83.2845,VALID,0,VALID,24.4628,VALID,22,VALID,0.433203,
2010-03-29, 03:03:05,VALID,1002.72,VALID,0,VALID,83.1624,VALID,0,VALID,24.4433,VALID,20,VALID,0.350391,
2010-03-29, 03:04:05,VALID,1002.7,VALID,0,VALID,83.521,VALID,0,VALID,24.4025,VALID,305,VALID,0.457812,
2010-03-29, 03:05:05,VALID,1002.69,VALID,0,VALID,84.3907,VALID,0,VALID,24.383,VALID,214,VALID,0.470313,
2010-03-29, 03:06:05,VALID,1002.68,VALID,0,VALID,83.1624,VALID,0,VALID,24.3441,VALID,329,VALID,0.846094,
2010-03-29, 03:07:05,VALID,1002.68,VALID,0,VALID,83.2463,VALID,0.100563,VALID,24.3636,VALID,221,VALID,0.887109,
2010-03-29, 03:08:05,VALID,1002.7,VALID,0,VALID,83.1395,VALID,0.100563,VALID,24.383,VALID,204,VALID,0.265625,
2010-03-29, 03:09:05,VALID,1002.67,VALID,0,VALID,83.0404,VALID,0.100563,VALID,24.383,VALID,346,VALID,0.885156,
2010-03-29, 03:10:05,VALID,1002.66,VALID,0,VALID,83.0022,VALID,0,VALID,24.383,VALID,221,VALID,0.810938,
2010-03-29, 03:11:05,VALID,1002.64,VALID,0,VALID,83.9863,VALID,0,VALID,24.3654,VALID,218,VALID,1.02227,
2010-03-29, 03:12:05,VALID,1002.62,VALID,0,VALID,83.4752,VALID,0,VALID,24.3033,VALID,225,VALID,0.389062,
2010-03-29, 03:13:05,VALID,1002.62,VALID,0,VALID,84.3602,VALID,0.100563,VALID,24.3246,VALID,235,VALID,0.104297,
2010-03-29, 03:14:05,VALID,1002.61,VALID,0,VALID,83.3455,VALID,0.100563,VALID,24.2857,VALID,229,VALID,0.80625,
2010-03-29, 03:15:05,VALID,1002.62,VALID,0,VALID,83.5362,VALID,0,VALID,24.2857,VALID,354,VALID,0.476953,
2010-03-29, 03:16:05,VALID,1002.66,VALID,0,VALID,83.643,VALID,0,VALID,24.3265,VALID,221,VALID,1.125,
2010-03-29, 03:17:05,VALID,1002.62,VALID,0,VALID,84.0397,VALID,0,VALID,24.2857,VALID,213,VALID,0.801562,
2010-03-29, 03:18:05,VALID,1002.65,VALID,0,VALID,83.3379,VALID,0,VALID,24.307,VALID,232,VALID,0.879297,
2010-03-29, 03:19:05,VALID,1002.67,VALID,0,VALID,83.8719,VALID,0.100563,VALID,24.3052,VALID,232,VALID,0.804688,
2010-03-29, 03:20:05,VALID,1002.71,VALID,0,VALID,84.6119,VALID,0,VALID,24.2857,VALID,231,VALID,0.421094,
2010-03-29, 03:21:05,VALID,1002.76,VALID,0,VALID,84.8713,VALID,0,VALID,24.2468,VALID,231,VALID,0,
2010-03-29, 03:22:05,VALID,1002.78,VALID,0,VALID,85.1002,VALID,0.100563,VALID,24.2078,VALID,216,VALID,0.364844,
2010-03-29, 03:23:05,VALID,1002.81,VALID,0,VALID,84.9247,VALID,0.100563,VALID,24.1689,VALID,216,VALID,0.433203,
2010-03-29, 03:24:05,VALID,1002.81,VALID,0,VALID,85.3367,VALID,0,VALID,24.1689,VALID,216,VALID,0.231641,
2010-03-29, 03:25:05,VALID,1002.86,VALID,0,VALID,85.1917,VALID,0,VALID,24.0892,VALID,216,VALID,0.34375,
2010-03-29, 03:26:05,VALID,1002.85,VALID,0,VALID,85.4587,VALID,0,VALID,24.1105,VALID,214,VALID,0.439063,
2010-03-29, 03:27:05,VALID,1002.87,VALID,0,VALID,85.596,VALID,0,VALID,24.091,VALID,197,VALID,0.557422,
2010-03-29, 03:28:05,VALID,1002.9,VALID,0,VALID,85.5198,VALID,0,VALID,24.0308,VALID,144,VALID,0.718359,
2010-03-29, 03:29:05,VALID,1002.89,VALID,0,VALID,85.6952,VALID,0.100563,VALID,24.1105,VALID,144,VALID,0.835156,
2010-03-29, 03:30:05,VALID,1002.92,VALID,0,VALID,85.7715,VALID,0,VALID,24.091,VALID,144,VALID,0.814453,
2010-03-29, 03:31:05,VALID,1002.92,VALID,0,VALID,85.5808,VALID,0,VALID,24.13,VALID,163,VALID,1.13594,
2010-03-29, 03:32:05,VALID,1002.98,VALID,0,VALID,85.2146,VALID,0,VALID,24.1105,VALID,165,VALID,1.4582,
2010-03-29, 03:33:05,VALID,1002.99,VALID,0,VALID,84.795,VALID,0,VALID,24.1513,VALID,179,VALID,1.43047,
2010-03-29, 03:34:05,VALID,1003.05,VALID,0,VALID,83.9482,VALID,0,VALID,24.2078,VALID,183,VALID,1.19922,
2010-03-29, 03:35:05,VALID,1003.08,VALID,0,VALID,84.0474,VALID,0,VALID,24.2857,VALID,188,VALID,1.03477,
2010-03-29, 03:36:05,VALID,1003.12,VALID,0,VALID,83.376,VALID,0,VALID,24.3441,VALID,177,VALID,0.873828,
2010-03-29, 03:37:05,VALID,1003.15,VALID,0,VALID,84.1389,VALID,0,VALID,24.3636,VALID,175,VALID,0.704297,
2010-03-29, 03:38:05,VALID,1003.18,VALID,0,VALID,84.3602,VALID,0,VALID,24.4043,VALID,175,VALID,0.604297,
2010-03-29, 03:39:05,VALID,1003.18,VALID,0,VALID,84.4899,VALID,0,VALID,24.3636,VALID,141,VALID,0.789063,
2010-03-29, 03:40:05,VALID,1003.2,VALID,0,VALID,84.8255,VALID,0,VALID,24.3849,VALID,126,VALID,0.585156,
2010-03-29, 03:41:05,VALID,1003.23,VALID,0,VALID,84.1618,VALID,0,VALID,24.3459,VALID,108,VALID,0.879687,
2010-03-29, 03:42:05,VALID,1003.26,VALID,0,VALID,83.9863,VALID,0,VALID,24.3246,VALID,102,VALID,1.03672,
2010-03-29, 03:43:05,VALID,1003.23,VALID,0,VALID,84.8942,VALID,0,VALID,24.3246,VALID,104,VALID,0.262891,
2010-03-29, 03:44:05,VALID,1003.29,VALID,0,VALID,85.0086,VALID,0,VALID,24.2857,VALID,102,VALID,0.305469,